Regional Weather Roundup
Issued by NWS Upton, NY

Current Version | Previous Version | Text Only | Print | Product List | Glossary On
Versions: 1 2 3 4 5 6 7 8 9 10 11 12 13 14 15 16 17 18 19 20 21 22 23 24 25 26 27
000
ASUS41 KOKX 172209
RWROKX

REGIONAL WEATHER ROUNDUP
NATIONAL WEATHER SERVICE NEW YORK NY
500 PM EST FRI NOV 17 2017

NOTE: "FAIR" INDICATES FEW OR NO CLOUDS BELOW 12,000 FEET WITH NO
SIGNIFICANT WEATHER AND/OR OBSTRUCTIONS TO VISIBILITY.

NYZ071-072-176-178-NJZ106-104-172300-
NEW YORK CITY METRO AREA

CITY           SKY/WX    TMP DP  RH WIND       PRES   REMARKS
Central Park   CLEAR     45  14  28 MISG      30.09S
Bronx Bot Gard   N/A     45  16  31 NW14      30.07F
LaGuardia APRT PTCLDY    47  18  31 NW18      30.06S
Kennedy INTL   PTCLDY    46  16  30 NW15G22   30.08R
Breezy Point     N/A     45 N/A N/A NW10G18     N/A
Newark/Liberty PTCLDY    46  14  27 NW16      30.08S
Teterboro      CLEAR     44  16  32 NW13      30.07S
$$

NYZ177-179-078>081-172300-
LONG ISLAND NEW YORK

CITY           SKY/WX    TMP DP  RH WIND       PRES   REMARKS
Jones Beach      N/A     45 N/A N/A NW13G18     N/A
Matinecock PT    N/A     46 N/A N/A NW21        N/A
Farmingdale    CLEAR     44  16  32 NW7       30.05S
MacArthur/ISP  PTCLDY    44  21  40 W12       30.04R
Shirley        CLEAR     44  26  49 NW8       30.04R
Mt Sinai Harb    N/A    N/A N/A N/A W12G18      N/A
Westhampton    CLEAR     42  23  46 W7        30.05R
East Hampton   FAIR      43  16  33 NW8G18    30.02R
Southold       NOT AVBL
Montauk          N/A     46  22  38 NW14G21   30.02R
$$

NYZ052-065-067-172300-
HUDSON VALLEY

CITY           SKY/WX    TMP DP  RH WIND       PRES   REMARKS
White Plains   PTCLDY    42  18  37 NW14      30.04S
Larchmont Harb   N/A     45 N/A N/A W14         N/A
Croton On Huds   N/A     45 N/A N/A NW15        N/A
Newburgh       CLEAR     41  18  38 NW12      30.08S
Montgomery     CLEAR     40  16  37 NW6       30.07S
Poughkeepsie   CLEAR     42  14  32 W6        30.07R
Albany         PTCLDY    34  18  52 W16G25    30.10R WCI  24
$$

NJZ001-105-106-008-010-013-015-019>022-104-172300-
NEW JERSEY

CITY           SKY/WX    TMP DP  RH WIND       PRES   REMARKS
Newark/Liberty PTCLDY    46  14  27 NW16      30.08S
Teterboro      CLEAR     44  16  32 NW13      30.07S
Caldwell       CLEAR     43  15  32 NW5       30.09S
Somerville     PTCLDY    43  19  38 NW6       30.08R
Linden         FAIR      45  15  29 NW6       30.09R
Perth Amboy      N/A     46 N/A N/A NW9         N/A
Sussex         CLEAR     40  14  34 N6        30.09S
Andover          N/A     39  16  39 CALM      30.09S
Trenton        MOCLDY    47  20  34 W3        30.10R
Millville      CLEAR     40  27  59 W5        30.13R
Atlantic City  CLEAR     44  25  47 NW8       30.10R
Wrightstown    PTCLDY    43  23  45 NW6       30.08R
Toms River     PTCLDY    42  26  53 NW9       30.10R
Belmar         CLEAR     44  19  36 W9        30.09R
$$

PAZ047>061-062-071-172300-
EASTERN PENNSYLVANIA

CITY           SKY/WX    TMP DP  RH WIND       PRES   REMARKS
Philadelphia   PTCLDY    49  21  33 NW10      30.13R
Allentown      PTCLDY    45  22  40 W6        30.10S
Scranton       CLOUDY    39  17  41 NW5       30.12S
$$

CTZ002-004>006-009-010-012-RIZ004-006-007-MAZ004-011-015-172300-
SOUTHERN NEW ENGLAND
 IN CT

CITY           SKY/WX    TMP DP  RH WIND       PRES   REMARKS
Bradley INTL   PTCLDY    35  18  49 NW8       30.03R WCI  29
Hartford       CLEAR     41  16  36 NW12G18   30.04R
Danbury        CLEAR     43  15  32 NW9       30.05S
Wtrbury/Oxford CLEAR     39  15  37 NW5       30.03R
Norwalk Harbor   N/A     43 N/A N/A W15         N/A
Bridgeport     CLEAR     46  16  30 NW13      30.03S
Meriden        CLEAR     41  14  33 CALM      30.04R
New Haven      PTCLDY    45  18  34 NW10      30.03R
Chester        FAIR      39  14  35 NW9       30.01S WCI  33
Groton         CLEAR     41  17  38 NW8       30.02R
Wilimantic     CLEAR     40  18  41 NW7       30.01R

 IN RI

CITY           SKY/WX    TMP DP  RH WIND       PRES   REMARKS
Providence     PTCLDY    41  22  46 W10       29.99R
Block Island   CLEAR     42  21  43 NW13G23   30.00R
Westerly       CLEAR     42  20  41 VRB6      30.01R
 IN MA

CITY           SKY/WX    TMP DP  RH WIND       PRES   REMARKS
Boston         CLEAR     40  19  43 W14       29.95R WCI  32
Worcester      CLEAR     35  13  40 W8        29.94R WCI  29
Westfield      CLEAR     36  18  48 NW13      30.02R WCI  27
Provincetown   CLEAR     42  25  50 NW21G31   29.94R
Nantucket      CLEAR     43  26  51 W15       29.92R
$$

ANZ330-335-338-340-345-350-353-355-172300-
COASTAL MARINE OBSERVATIONS


STATION/POSITION TIME  SKY/WX   TEMP    WIND        PRES    VSBY  WAVE
                                AIR SEA DIR/SP/G                  HT/PER
                 (UTC)          (F)     (DEG/KT/KT) (MB)    (MI)  (FT/S)
NY HARB ENTRANCE 2050            49 57  310/ 25/ 29 1016.3          3/ 4
20 S FIRE ISLAND 2150            49 58  310/ 19/ 25 1017.5          5/ 5
GREAT SOUTH BAY  2115            45 47  310/ 16/ 21   N/A
HUDSON CANYON    2050            49 60  310/ 23/ 27 1016.3          8/ 7
KINGS POINT      NOT AVBL
EXECUTION ROCKS  2130            48     300/ 14/ 17   N/A
WESTERN LI SOUND 2049            48     300/ 17/ 25   N/A           2/ 3
CENTRAL LI SOUND NOT AVBL
ROBBINS REEF     NOT AVBL
$$


>>>>>>>>>>>>>>>>>>>>>>>>>>>> KEY <<<<<<<<<<<<<<<<<<<<<<<<<<<
>                                                          <
>     SKY/WX - Sky Condition/Present Weather               <
>     TMP    - Temperature in Fahrenheit                   <
>     DP     - Dew Point in Fahrenheit                     <
>     RH     - Relative Humidity in Percent                <
>     WIND   - Direction (from) and Speed in MPH           <
>     PRES   - Mean Sea Level Pressure (inches of Hg)      <
>     WCI    - Wind Chill Index                            <
>     VSB    - VISIBILITY IN MILES                         <
>     HX     - HEAT INDEX                                  <
>     TC     - TEMPERATURE IN CELSIUS                      <
>     VRB    - VARIABLE WIND DIRECTION                     <
>                                                          <
>>>>>>>>>>>>>>>>>>>>>>>>>>>> KEY <<<<<<<<<<<<<<<<<<<<<<<<<<<




USA.gov is the U.S. government's official web portal to all federal, state and local government web resources and services.